Regional Weather Roundup
Issued by NWS

Home | Current Version | Previous Version | Graphics & Text | Print | Product List | Glossary On
Versions: 1 2 3 4 5 6 7 8 9 10 11 12 13 14 15 16 17 18 19 20 21 22 23 24 25 26 27 28 29 30 31 32 33 34 35 36 37 38 39 40 41 42 43 44 45 46 47 48 49 50
000
ASUS44 KMEG 280310
RWRTN
TENNESSEE HOURLY STATE WEATHER ROUNDUP
NATIONAL WEATHER SERVICE MEMPHIS TN
900 PM CST MON FEB 27 2017

TNZ002-004-019-021-049-052-054-088>092-280400-
WEST TENNESSEE

CITY           SKY/WX    TMP DP  RH WIND       PRES   REMARKS
MEMPHIS INTL   MOCLDY    58  52  80 SE10      30.10S
NWS MEMPHIS      N/A     57 N/A N/A MISG        N/A
JACKSON        CLOUDY    57  50  77 S6        30.14R
UNION CITY     CLEAR     55  45  67 CALM      30.11R
PARIS          CLEAR     54  45  71 S13       30.15R
HUNTINGDON     CLOUDY    55  46  71 S9        30.13S
$$

TNZ008-025-027-028-033-062-065-066-280400-
NORTH MIDDLE TENNESSEE

CITY           SKY/WX    TMP DP  RH WIND       PRES   REMARKS
NASHVILLE      CLEAR     51  45  79 SE7       30.19R
PORTLAND       CLEAR     52  45  76 S8G15     30.19R
CLARKSVILLE    CLEAR     53  43  68 SE8       30.15R
SMYRNA         CLEAR     49  45  86 CALM      30.20R
COOKEVILLE     CLEAR     50  43  76 S7        30.21R
GALLATIN       MOCLDY    50  45  81 CALM      30.22R
CROSSVILLE     CLOUDY    48  42  80 S5        30.24S
$$

TNZ061-075-076-078-094-096-097-280400-
SOUTH MIDDLE TENNESSEE

CITY           SKY/WX    TMP DP  RH WIND       PRES   REMARKS
FAYETTEVILLE   CLEAR     50  48  93 SE8       30.19S
TULLAHOMA      CLEAR     48  45  87 SE8       30.21R
WINCHESTER     CLEAR     48  45  87 CALM      30.22R
MCMINNVILLE    CLEAR     48  45  87 SE5       30.21R
COLUMBIA       CLEAR     52  52 100 SE3       30.16R
SHELBYVILLE    CLEAR     52  48  87 SE6       30.21R
$$

TNZ017-018-042-046-047-280400-
NORTHEAST TENNESSEE

CITY           SKY/WX    TMP DP  RH WIND       PRES   REMARKS
TRI CITIES     CLOUDY    49  36  61 N3        30.27S
ELIZABETHTON   CLOUDY    52  36  54 E5        30.28S
$$

TNZ012-013-036-069-073-074-280400-
CENTRAL EAST TENNESSEE

CITY           SKY/WX    TMP DP  RH WIND       PRES   REMARKS
KNOXVILLE      MOCLDY    50  39  66 N3        30.26R
OAK RIDGE      CLOUDY    50  41  71 CALM      30.28R
DOWNTOWN KNOXV CLOUDY    46  41  81 CALM      30.28R
GATLINBURG     CLEAR     43  36  75 CALM      30.26S
MORRISTOWN     PTCLDY    46  36  66 CALM      30.26R
JACKSBORO      CLEAR     45  37  76 CALM      30.28S
$$

TNZ083-085-099-280400-
SOUTHEAST TENNESSEE

CITY           SKY/WX    TMP DP  RH WIND       PRES   REMARKS
CHATTANOOGA    MOCLDY    48  44  86 CALM      30.26S
$$

SKY/WX REPORTED AS FAIR MEANS FEW OR NO CLOUDS BELOW
12 THOUSAND FEET.




USA.gov is the U.S. government's official web portal to all federal, state and local government web resources and services.